CAPE
567 1079 1844 1786 1815 2383 2416 2267 2034 1809 1678 1342 1092 1162 849 582 158 40 206 450 586 691 722 571 32 103 81 45 46 177 237 57 63 71 186 437 107 3 97 308 347 167 101
658 1150 1719 1717 1865 2174 2352 2321 2128 1817 1701 1530 1313 1185 1296 618 193 35 206 510 758 745 668 305 22 14 185 17 4 3 1 0 0 0 1 115 383 181 374 340 497 220 120
940 1147 1292 1574 1648 1915 2255 2290 2090 1918 1624 1130 683 1194 1286 807 398 488 374 843 735 782 465 46 6 7 37 3 0 0 0 0 0 0 0 0 4 310 176 187 443 221 407
1002 1121 1056 1533 1534 1545 1785 2135 2041 1801 1698 1495 1236 1362 1187 648 749 1103 904 755 847 725 174 5 2 0 0 0 0 0 0 0 0 0 0 0 0 70 38 30 16 71 122
952 1039 1109 1587 1620 1533 1313 1752 2035 1985 1736 1561 1377 1511 1351 1303 1086 1011 964 1029 935 926 204 1 0 0 0 0 0 0 0 0 0 0 0 0 0 3 8 5 6 14 2
970 999 1409 1594 1645 1546 1491 1340 1828 2064 1916 1732 1538 1324 1225 1140 1179 1054 964 768 999 661 59 0 0 0 0 0 0 0 0 0 0 0 0 0 0 0 1 0 0 0 2
949 1120 1391 1688 1628 1579 1534 1349 1403 1720 1917 1800 1660 1512 1151 1166 1173 1003 599 262 803 675 87 0 0 0 0 0 0 0 0 0 0 0 0 0 0 0 0 0 0 0 0
911 1281 1320 1501 1520 1582 1557 1469 1285 1642 1625 1733 1627 1243 1056 1056 1305 841 461 287 503 494 88 0 0 0 0 0 0 0 0 0 0 0 0 0 0 0 0 0 0 0 0
1086 1251 1323 1230 1219 1298 1313 1337 1358 1364 1597 1328 1449 1193 897 778 1112 628 362 169 300 513 139 26 0 0 0 0 0 0 0 0 0 0 0 0 0 0 0 0 0 0 0
1150 1211 1221 1092 972 894 1031 1131 1168 1251 1144 913 952 788 371 435 629 470 57 79 661 692 411 290 61 32 22 0 0 0 0 0 0 0 0 0 0 0 0 0 0 0 0
945 1095 1099 954 777 701 839 818 871 988 948 742 632 497 277 109 110 6 2 7 244 521 475 241 149 132 61 4 0 0 0 0 0 0 0 0 0 0 0 0 0 0 0
280 918 1002 965 684 596 684 673 621 818 823 585 414 262 129 25 0 0 0 7 120 135 122 98 59 37 0 0 0 0 0 0 0 0 0 0 0 0 0 0 0 0 0
130 362 443 733 476 474 443 502 489 558 681 582 333 229 206 47 1 7 0 12 3 6 0 3 5 0 0 0 0 0 0 0 0 0 0 0 0 0 0 0 0 0 0
81 177 181 275 409 292 216 229 409 478 521 508 389 275 220 104 21 35 0 6 2 0 0 0 0 0 0 0 0 0 0 0 0 0 0 0 0 0 0 9 15 26 89
29 78 145 151 137 169 134 82 104 434 451 410 368 294 120 208 165 124 3 2 3 0 0 0 0 0 0 0 0 0 0 0 0 0 0 0 0 23 33 0 7 11 14
4 46 102 123 128 109 97 75 31 55 149 285 344 327 261 132 215 1 1 7 4 0 0 0 0 0 0 0 0 0 0 0 0 0 0 0 0 0 70 32 19 35 53
0 37 46 136 155 134 95 75 61 39 57 110 162 134 254 242 162 15 5 42 7 13 0 0 0 0 0 0 0 0 0 0 0 0 0 0 1 3 5 39 129 127 99
5 32 31 37 29 40 76 93 71 38 49 35 54 97 150 115 155 28 3 29 34 6 0 0 0 0 0 0 0 0 0 0 0 0 0 0 1 4 4 16 172 203 124
9 71 61 86 60 19 1 12 24 21 64 22 24 29 54 53 63 14 4 1 23 0 0 0 0 0 0 0 0 0 0 0 0 4 8 1 1 4 6 0 0 0 0
132 166 149 133 75 27 25 25 23 69 13 27 13 4 0 5 56 34 40 16 0 1 0 0 0 0 0 0 3 3 0 0 8 9 3 0 0 4 11 5 0 0 0
207 251 233 195 219 95 68 110 117 82 49 13 2 2 32 24 83 92 73 60 65 0 0 29 41 35 48 58 42 36 19 13 22 47 5 6 0 1 2 7 0 0 0
147 151 264 181 186 148 89 98 164 118 100 28 1 15 7 60 149 91 66 42 5 40 118 98 83 92 97 83 66 53 58 66 83 34 14 0 3 9 11 6 14 0 0
91 95 6 3 59 32 58 106 166 161 158 65 6 6 43 92 149 117 82 68 87 167 200 206 151 152 113 116 87 59 48 32 29 63 73 19 18 12 35 31 9 3 14
113 90 13 0 5 5 52 117 78 92 87 30 3 10 68 148 196 243 207 228 276 269 246 277 279 262 229 158 110 122 104 54 23 0 9 60 53 42 42 51 6 9 9
60 37 30 42 3 0 8 93 70 42 51 24 3 26 57 80 88 156 191 231 217 214 174 143 131 126 119 98 81 95 129 83 78 66 21 17 38 48 29 24 8 0 0
70 70 41 69 39 3 24 74 61 34 38 36 33 36 46 67 81 102 114 84 119 136 123 107 108 123 111 97 99 91 107 59 59 63 13 45 52 45 32 16 0 0 0
CIN
-292 -198 -92 -60 -35 -0 -0 -0 -0 -0 -0 -0 -9 -1 -14 -62 -220 -342 -157 -80 -57 -55 -53 -76 -291 -235 -246 -281 -260 -167 -148 -237 -247 -232 -163 -72 -197 -0 -204 -84 -66 -124 -165
-292 -149 -72 -55 -27 -1 -0 -0 -0 -0 -0 -0 -0 -2 -0 -45 -174 -340 -154 -69 -36 -44 -71 -138 -342 -4 -186 -109 -0 -0 -0 -0 -0 -0 -15 -136 -68 -130 -68 -74 -37 -90 -122
-197 -113 -75 -42 -22 -2 -0 -0 -0 -0 -0 -1 -52 -1 -0 -23 -81 -59 -98 -20 -34 -33 -106 -309 -0 -0 -287 -0 -0 -0 -0 -0 -0 -0 -0 -0 -14 -80 -119 -108 -38 -69 -28
-206 -99 -71 -23 -19 -7 -0 -0 -0 -0 -0 -0 -3 -0 -1 -37 -24 -0 -9 -26 -29 -51 -197 -0 -0 -0 -0 -0 -0 -0 -0 -0 -0 -0 -0 -0 -0 -160 -95 -100 -21 -54 -92
-198 -127 -42 -2 -3 -0 -4 -0 -0 -0 -0 -0 -1 -0 -0 -0 -4 -0 -1 -3 -14 -27 -168 -0 -0 -0 -0 -0 -0 -0 -0 -0 -0 -0 -0 -0 -0 -1 -0 -0 -0 -12 -0
-201 -150 -21 -0 -0 -0 -0 -1 -0 -0 -0 -0 -0 -0 -0 -0 -1 -1 -1 -20 -3 -47 -247 -0 -0 -0 -0 -0 -0 -0 -0 -0 -0 -0 -0 -0 -0 -0 -0 -0 -0 -0 -0
-194 -111 -29 -0 -0 -0 -0 -0 -0 -0 -0 -0 -0 -0 -0 -0 -0 -0 -30 -79 -10 -31 -224 -0 -0 -0 -0 -0 -0 -0 -0 -0 -0 -0 -0 -0 -0 -0 -0 -0 -0 -0 -0
-153 -99 -51 -7 -1 -0 -0 -0 -0 -0 -0 -0 -0 -0 -0 -0 -0 -3 -45 -69 -34 -40 -213 -0 -0 -0 -0 -0 -0 -0 -0 -0 -0 -0 -0 -0 -0 -0 -0 -0 -0 -0 -0
-69 -29 -34 -50 -22 -3 -1 -0 -0 -0 -0 -0 -0 -0 -0 -1 -0 -13 -45 -102 -69 -33 -146 -66 -0 -0 -0 -0 -0 -0 -0 -0 -0 -0 -0 -0 -0 -0 -0 -0 -0 -0 -0
-24 -2 -2 -12 -12 -60 -9 -1 -1 -0 -2 -2 -2 -1 -11 -15 -16 -15 -188 -140 -14 -9 -39 -60 -61 -58 -82 -0 -0 -0 -0 -0 -0 -0 -0 -0 -0 -0 -0 -0 -0 -0 -0
-31 -20 -13 -6 -10 -17 -19 -2 -1 -2 -2 -4 -6 -13 -20 -81 -89 -4 -8 -19 -67 -25 -22 -60 -118 -155 -58 -27 -0 -0 -0 -0 -0 -0 -0 -0 -0 -0 -0 -0 -0 -0 -0
-84 -23 -31 -22 -20 -2 -1 -1 -2 -0 -1 -3 -14 -28 -42 -122 -0 -0 -0 -45 -112 -136 -124 -139 -33 -73 -0 -0 -0 -0 -0 -0 -0 -0 -0 -0 -0 -0 -0 -0 -0 -0 -0
-123 -93 -62 -47 -74 -28 -9 -3 -6 -1 -1 -1 -8 -18 -14 -54 -35 -16 -0 -122 -4 -14 -0 -6 -9 -0 -0 -0 -0 -0 -0 -0 -0 -0 -0 -0 -0 -0 -0 -0 -0 -0 -0
-70 -110 -129 -78 -56 -86 -56 -27 -10 -7 -0 -0 -2 -1 -3 -12 -58 -48 -2 -149 -18 -0 -0 -0 -0 -0 -0 -0 -0 -0 -0 -0 -0 -0 -0 -0 -0 -0 -0 -14 -11 -7 -25
-83 -41 -107 -98 -71 -75 -102 -88 -105 -7 -3 -0 -0 -0 -7 -0 -0 -12 -17 -14 -147 -0 -0 -0 -0 -0 -0 -0 -0 -0 -0 -0 -0 -0 -0 -0 -0 -43 -28 -0 -14 -10 -5
-49 -88 -54 -47 -47 -81 -37 -66 -55 -101 -74 -4 -0 -0 -0 -1 -0 -8 -4 -145 -167 -0 -0 -0 -0 -0 -0 -0 -0 -0 -0 -0 -0 -0 -0 -0 -0 -0 -58 -34 -12 -15 -7
-0 -59 -66 -54 -15 -17 -29 -42 -41 -77 -123 -63 -4 -3 -0 -0 -0 -0 -61 -84 -120 -125 -0 -0 -0 -0 -0 -0 -0 -0 -0 -0 -0 -0 -0 -0 -7 -11 -71 -47 -19 -11 -5
-53 -76 -42 -13 -4 -3 -24 -17 -18 -66 -50 -38 -100 -15 -1 -1 -1 -8 -43 -115 -109 -134 -0 -0 -0 -0 -0 -0 -0 -0 -0 -0 -0 -0 -0 -0 -2 -3 -16 -69 -36 -12 -5
-74 -100 -79 -73 -78 -70 -17 -168 -150 -141 -74 -108 -173 -127 -6 -0 -1 -39 -56 -54 -140 -0 -0 -0 -0 -0 -0 -0 -0 -0 -0 -0 -0 -35 -56 -2 -8 -8 -25 -2 -0 -0 -0
-95 -85 -74 -82 -87 -88 -43 -32 -105 -52 -74 -121 -131 -188 -0 -21 -12 -0 -6 -159 -0 -5 -0 -0 -0 -16 -0 -0 -146 -126 -0 -0 -50 -34 -7 -0 -0 -12 -35 -19 -0 -0 -0
-48 -49 -65 -48 -48 -92 -92 -68 -25 -32 -94 -102 -33 -174 -108 -16 -7 -10 -1 -47 -45 -0 -0 -147 -112 -115 -115 -83 -84 -85 -99 -150 -87 -44 -66 -83 -0 -46 -18 -5 -0 -0 -0
-59 -77 -39 -31 -40 -31 -40 -39 -17 -27 -38 -73 -6 -48 -36 -8 -5 -5 -4 -40 -30 -143 -54 -66 -83 -83 -58 -45 -56 -56 -39 -50 -51 -40 -49 -0 -20 -24 -35 -7 -4 -0 -0
-73 -33 -55 -83 -32 -69 -4 -22 -3 -0 -0 -14 -0 -0 -32 -58 -5 -5 -27 -100 -85 -51 -37 -44 -69 -62 -38 -47 -28 -16 -15 -28 -19 -37 -33 -21 -12 -16 -3 -2 -5 -35 -14
-100 -37 -65 -0 -113 -29 -2 -1 -8 -3 -4 -0 -3 -11 -10 -47 -38 -53 -41 -16 -14 -30 -42 -44 -43 -40 -36 -42 -54 -54 -42 -37 -33 -0 -46 -9 -20 -5 -1 -0 -15 -9 -9
-80 -133 -127 -153 -3 -0 -4 -3 -9 -41 -0 -6 -0 -24 -10 -20 -28 -49 -17 -31 -11 -16 -38 -54 -36 -57 -74 -59 -73 -58 -48 -62 -30 -60 -0 -3 -0 -0 -2 -0 -5 -0 -0
-36 -34 -24 -28 -2 -2 -0 -0 -1 -1 -0 -10 -0 -3 -29 -22 -41 -52 -33 -19 -70 -75 -64 -98 -62 -66 -48 -50 -57 -61 -54 -53 -31 -86 -25 -13 -9 -0 -0 -6 -0 -0 -0
Wind_Speed
37 29 31 28 32 31 28 28 28 27 25 25 26 26 26 26 26 nan 24 22 19 17 19 20 nan 20 nan nan nan 20 22 nan nan nan 19 19 18 nan nan 12 9 8 16
42 33 35 32 32 32 31 28 28 29 28 26 25 26 27 26 27 nan 24 22 19 21 22 21 nan nan 19 nan nan nan nan nan nan nan nan 16 16 16 16 16 15 14 18
26 24 34 36 34 33 33 31 28 28 29 28 25 25 27 27 26 26 25 23 23 24 23 nan nan nan nan nan nan nan nan nan nan nan nan nan nan 18 19 18 18 20 20
28 21 24 37 40 38 35 34 31 27 28 30 27 27 27 27 26 25 24 25 26 26 25 nan nan nan nan nan nan nan nan nan nan nan nan nan nan nan nan nan nan nan 20
27 28 21 30 42 42 39 35 32 30 28 28 28 28 28 26 26 27 28 27 26 28 26 nan nan nan nan nan nan nan nan nan nan nan nan nan nan nan nan nan nan nan nan
31 28 30 27 37 43 43 38 34 30 30 28 29 30 30 27 29 30 29 29 29 28 nan nan nan nan nan nan nan nan nan nan nan nan nan nan nan nan nan nan nan nan nan
34 32 32 28 28 39 44 42 37 33 31 29 31 31 32 30 29 31 31 28 30 29 nan nan nan nan nan nan nan nan nan nan nan nan nan nan nan nan nan nan nan nan nan
38 35 31 27 28 27 37 44 41 36 34 31 32 32 32 32 31 33 31 30 29 32 nan nan nan nan nan nan nan nan nan nan nan nan nan nan nan nan nan nan nan nan nan
40 36 36 33 31 31 25 33 42 40 37 35 33 33 33 33 35 35 32 31 28 31 29 nan nan nan nan nan nan nan nan nan nan nan nan nan nan nan nan nan nan nan nan
43 42 41 35 33 33 30 27 36 45 43 38 38 35 35 35 34 36 nan nan 31 31 30 27 nan nan nan nan nan nan nan nan nan nan nan nan nan nan nan nan nan nan nan
41 43 44 42 41 37 35 31 29 39 45 44 43 41 40 36 35 nan nan nan 33 35 33 29 26 24 nan nan nan nan nan nan nan nan nan nan nan nan nan nan nan nan nan
37 34 37 39 37 40 40 35 30 30 44 50 47 45 42 nan nan nan nan nan 35 37 33 nan nan nan nan nan nan nan nan nan nan nan nan nan nan nan nan nan nan nan nan
48 51 39 41 42 37 40 38 29 30 33 48 52 49 48 nan nan nan nan nan nan nan nan nan nan nan nan nan nan nan nan nan nan nan nan nan nan nan nan nan nan nan nan
nan 47 49 42 47 42 35 36 35 32 35 42 54 53 52 50 nan nan nan nan nan nan nan nan nan nan nan nan nan nan nan nan nan nan nan nan nan nan nan nan nan nan nan
nan nan 48 49 51 49 50 nan 46 44 39 42 52 57 54 52 49 45 nan nan nan nan nan nan nan nan nan nan nan nan nan nan nan nan nan nan nan nan nan nan nan nan nan
nan nan 53 48 50 50 nan nan nan nan 43 42 48 56 59 54 52 nan nan nan nan nan nan nan nan nan nan nan nan nan nan nan nan nan nan nan nan nan nan nan nan nan nan
nan nan nan 54 52 49 nan nan nan nan nan 47 45 56 62 55 52 nan nan nan nan nan nan nan nan nan nan nan nan nan nan nan nan nan nan nan nan nan nan nan 25 26 nan
nan nan nan nan nan nan nan nan nan nan nan nan nan nan 51 58 52 nan nan nan nan nan nan nan nan nan nan nan nan nan nan nan nan nan nan nan nan nan nan nan 29 29 30
nan nan nan nan nan nan nan nan nan nan nan nan nan nan nan nan nan nan nan nan nan nan nan nan nan nan nan nan nan nan nan nan nan nan nan nan nan nan nan nan nan nan nan
58 59 60 60 nan nan nan nan nan nan nan nan nan nan nan nan nan nan nan nan nan nan nan nan nan nan nan nan nan nan nan nan nan nan nan nan nan nan nan nan nan nan nan
61 60 56 57 59 nan nan 50 49 nan nan nan nan nan nan nan nan nan nan nan nan nan nan nan nan nan nan nan nan nan nan nan nan nan nan nan nan nan nan nan nan nan nan
59 60 59 58 60 54 nan nan 48 49 50 nan nan nan nan nan 57 nan nan nan nan nan 55 nan nan nan nan nan nan nan nan nan nan nan nan nan nan nan nan nan nan nan nan
nan nan nan nan nan nan nan 35 44 42 46 nan nan nan nan nan 45 59 nan nan nan 59 58 56 58 58 54 47 nan nan nan nan nan nan nan nan nan nan nan nan nan nan nan
54 nan nan nan nan nan nan 25 nan nan nan nan nan nan nan 54 52 69 70 69 69 57 43 46 59 53 55 49 36 27 32 nan nan nan nan nan nan nan nan nan nan nan nan
nan nan nan nan nan nan nan nan nan nan nan nan nan nan nan nan nan 33 47 58 37 49 37 36 43 29 35 nan nan nan 43 nan nan nan nan nan nan nan nan nan nan nan nan
nan nan nan nan nan nan nan nan nan nan nan nan nan nan nan nan nan 36 36 nan 33 31 31 37 33 33 37 nan nan nan 34 nan nan nan nan nan nan nan nan nan nan nan nan
Wind_Direction
245 252 268 269 276 276 276 280 282 283 283 288 291 292 291 288 294 nan 297 298 299 296 298 297 nan 298 nan nan nan 265 263 nan nan nan 249 257 265 nan nan 287 297 295 274
267 258 271 269 269 271 275 277 279 281 281 284 288 292 294 290 294 nan 299 297 293 291 293 289 nan nan 296 nan nan nan nan nan nan nan nan 246 260 278 279 278 284 287 280
282 264 252 265 263 265 268 274 273 278 282 282 288 290 293 293 293 297 301 293 293 287 287 nan nan nan nan nan nan nan nan nan nan nan nan nan nan 271 282 275 271 270 267
285 293 262 250 257 257 258 264 270 271 275 281 285 286 290 294 291 292 295 293 287 287 284 nan nan nan nan nan nan nan nan nan nan nan nan nan nan nan nan nan nan nan 269
277 282 289 263 251 254 255 258 265 271 271 275 279 284 285 290 292 287 290 288 281 280 283 nan nan nan nan nan nan nan nan nan nan nan nan nan nan nan nan nan nan nan nan
270 269 284 294 258 251 254 254 255 265 270 272 274 280 283 286 287 286 281 284 281 282 nan nan nan nan nan nan nan nan nan nan nan nan nan nan nan nan nan nan nan nan nan
269 264 269 285 289 257 253 256 255 253 263 266 270 274 281 284 284 282 277 281 283 284 nan nan nan nan nan nan nan nan nan nan nan nan nan nan nan nan nan nan nan nan nan
265 270 271 279 284 285 261 255 258 257 261 260 265 271 276 281 280 281 277 276 275 277 nan nan nan nan nan nan nan nan nan nan nan nan nan nan nan nan nan nan nan nan nan
259 265 267 267 267 271 276 262 255 257 259 262 262 268 272 276 277 280 277 275 275 278 280 nan nan nan nan nan nan nan nan nan nan nan nan nan nan nan nan nan nan nan nan
250 251 258 258 257 257 262 268 256 249 253 260 259 261 263 266 271 281 nan nan 281 279 278 278 nan nan nan nan nan nan nan nan nan nan nan nan nan nan nan nan nan nan nan
246 250 251 253 252 250 254 257 260 255 250 252 255 258 256 254 261 nan nan nan 270 274 275 275 278 277 nan nan nan nan nan nan nan nan nan nan nan nan nan nan nan nan nan
249 246 251 256 258 246 245 249 250 250 245 245 247 254 252 nan nan nan nan nan 266 266 270 nan nan nan nan nan nan nan nan nan nan nan nan nan nan nan nan nan nan nan nan
250 249 251 258 260 254 241 237 250 252 253 245 249 250 249 nan nan nan nan nan nan nan nan nan nan nan nan nan nan nan nan nan nan nan nan nan nan nan nan nan nan nan nan
nan 251 256 251 259 259 243 240 260 257 252 251 246 247 249 248 nan nan nan nan nan nan nan nan nan nan nan nan nan nan nan nan nan nan nan nan nan nan nan nan nan nan nan
nan nan 253 255 260 261 260 nan 262 260 266 262 248 244 246 249 251 250 nan nan nan nan nan nan nan nan nan nan nan nan nan nan nan nan nan nan nan nan nan nan nan nan nan
nan nan 252 248 247 256 nan nan nan nan 268 268 255 244 242 243 249 nan nan nan nan nan nan nan nan nan nan nan nan nan nan nan nan nan nan nan nan nan nan nan nan nan nan
nan nan nan 257 252 250 nan nan nan nan nan 276 260 243 242 240 246 nan nan nan nan nan nan nan nan nan nan nan nan nan nan nan nan nan nan nan nan nan nan nan 295 291 nan
nan nan nan nan nan nan nan nan nan nan nan nan nan nan 242 242 240 nan nan nan nan nan nan nan nan nan nan nan nan nan nan nan nan nan nan nan nan nan nan nan 289 280 278
nan nan nan nan nan nan nan nan nan nan nan nan nan nan nan nan nan nan nan nan nan nan nan nan nan nan nan nan nan nan nan nan nan nan nan nan nan nan nan nan nan nan nan
247 246 249 253 nan nan nan nan nan nan nan nan nan nan nan nan nan nan nan nan nan nan nan nan nan nan nan nan nan nan nan nan nan nan nan nan nan nan nan nan nan nan nan
243 245 242 247 252 nan nan 256 257 nan nan nan nan nan nan nan nan nan nan nan nan nan nan nan nan nan nan nan nan nan nan nan nan nan nan nan nan nan nan nan nan nan nan
241 241 243 237 246 251 nan nan 261 262 259 nan nan nan nan nan 245 nan nan nan nan nan 250 nan nan nan nan nan nan nan nan nan nan nan nan nan nan nan nan nan nan nan nan
nan nan nan nan nan nan nan 249 250 244 244 nan nan nan nan nan 256 247 nan nan nan 246 249 253 252 257 255 255 nan nan nan nan nan nan nan nan nan nan nan nan nan nan nan
234 nan nan nan nan nan nan 246 nan nan nan nan nan nan nan 261 259 251 232 236 243 237 235 246 247 244 251 255 252 258 264 nan nan nan nan nan nan nan nan nan nan nan nan
nan nan nan nan nan nan nan nan nan nan nan nan nan nan nan nan nan 240 243 238 240 240 230 238 253 246 257 nan nan nan 255 nan nan nan nan nan nan nan nan nan nan nan nan
nan nan nan nan nan nan nan nan nan nan nan nan nan nan nan nan nan 229 231 nan 240 249 237 249 250 276 281 nan nan nan 273 nan nan nan nan nan nan nan nan nan nan nan nan